Location: Rehoboth Beach
(38.7438°N, 75.1341°W)
Time: 03:01:06
(UTC-04:00)

HST - Visible Passes

Search period start: 03 September 2014 00:00
Search period end: 13 September 2014 00:00
Orbit: 547 x 552 km, 28.5° (Epoch: 01 September)

Date Brightness Start Highest point End Pass type
(mag) Time Alt. Az. Time Alt. Az. Time Alt. Az.
06 Sep 3.2 21:21:02 10° SSW 21:21:42 13° SSW 21:21:42 13° SSW visible
07 Sep 2.9 21:13:49 10° SW 21:15:16 16° SSW 21:15:16 16° SSW visible
08 Sep 2.7 21:06:39 10° SW 21:08:46 18° SSW 21:08:46 18° SSW visible
09 Sep 2.5 20:59:33 10° SW 21:02:11 20° S 21:02:11 20° S visible
10 Sep 2.5 20:52:31 10° SW 20:55:33 20° S 20:55:35 20° S visible
11 Sep 2.6 20:45:32 10° SW 20:48:28 19° S 20:48:57 18° S visible
12 Sep 2.7 20:38:36 10° SW 20:41:23 17° S 20:42:18 16° S visible
